TimeCDT,TemperatureF,Dew PointF,Humidity,Sea Level PressureIn,VisibilityMPH,Wind Direction,Wind SpeedMPH,Gust SpeedMPH,PrecipitationIn,Events,Conditions,WindDirDegrees,DateUTC
12:14 AM,60.8,59.0,94,29.89,2.0,Calm,Calm,-,N/A,,Clear,0,2013-06-16 05:14:00
12:34 AM,60.8,57.2,88,29.88,3.0,Calm,Calm,-,N/A,,Clear,0,2013-06-16 05:34:00
12:53 AM,60.8,59.0,94,29.88,0.8,Calm,Calm,-,N/A,,Mist,0,2013-06-16 05:53:00
1:14 AM,59.0,57.2,94,29.88,0.5,Calm,Calm,-,N/A,Fog,Fog,0,2013-06-16 06:14:00
1:34 AM,59.0,57.2,94,29.88,7.0,Calm,Calm,-,N/A,,Clear,0,2013-06-16 06:34:00
1:53 AM,57.2,57.2,100,29.88,7.0,Calm,Calm,-,N/A,,Clear,0,2013-06-16 06:53:00
2:14 AM,57.2,57.2,100,29.88,10.0,SSW,4.6,-,N/A,,Clear,210,2013-06-16 07:14:00
2:34 AM,62.6,57.2,82,29.88,10.0,SW,4.6,-,N/A,,Clear,220,2013-06-16 07:34:00
2:53 AM,62.6,57.2,82,29.88,10.0,SW,4.6,-,N/A,,Clear,230,2013-06-16 07:53:00
3:14 AM,62.6,57.2,82,29.87,10.0,WSW,3.5,-,N/A,,Clear,250,2013-06-16 08:14:00
3:34 AM,60.8,55.4,82,29.88,10.0,Calm,Calm,-,N/A,,Clear,0,2013-06-16 08:34:00
3:54 AM,60.8,55.4,82,29.88,10.0,Calm,Calm,-,N/A,,Clear,0,2013-06-16 08:54:00
4:14 AM,59.0,55.4,88,29.88,10.0,Calm,Calm,-,N/A,,Clear,0,2013-06-16 09:14:00
4:34 AM,59.0,55.4,88,29.88,10.0,Calm,Calm,-,N/A,,Clear,0,2013-06-16 09:34:00
4:54 AM,57.2,53.6,88,29.90,10.0,SSW,3.5,-,N/A,,Clear,210,2013-06-16 09:54:00
5:14 AM,57.2,53.6,88,29.91,10.0,Calm,Calm,-,N/A,,Clear,0,2013-06-16 10:14:00
5:34 AM,59.0,53.6,82,29.90,10.0,Calm,Calm,-,N/A,,Clear,0,2013-06-16 10:34:00
5:54 AM,55.4,51.8,88,29.90,10.0,Calm,Calm,-,N/A,,Clear,0,2013-06-16 10:54:00
6:14 AM,60.8,53.6,77,29.91,10.0,Calm,Calm,-,N/A,,Clear,0,2013-06-16 11:14:00
6:34 AM,60.8,55.4,82,29.91,7.0,Calm,Calm,-,N/A,,Clear,0,2013-06-16 11:34:00
6:45 AM,60.8,55.4,82,29.91,10.0,Calm,Calm,-,N/A,,Clear,0,2013-06-16 11:45:00
6:54 AM,62.6,55.4,77,29.91,10.0,West,3.5,-,N/A,,Clear,280,2013-06-16 11:54:00
7:45 AM,66.2,55.4,68,29.92,10.0,Calm,Calm,-,N/A,,Clear,0,2013-06-16 12:45:00
8:45 AM,73.4,57.2,57,29.91,10.0,West,5.8,-,N/A,,Clear,270,2013-06-16 13:45:00
9:45 AM,77.0,55.4,47,29.91,10.0,West,8.1,-,N/A,,Clear,280,2013-06-16 14:45:00
10:45 AM,78.8,53.6,42,29.92,10.0,West,10.4,-,N/A,,Clear,270,2013-06-16 15:45:00
11:45 AM,80.6,51.8,37,29.91,10.0,West,10.4,-,N/A,,Scattered Clouds,280,2013-06-16 16:45:00
12:45 PM,82.4,48.2,30,29.90,10.0,West,10.4,20.7,N/A,,Scattered Clouds,260,2013-06-16 17:45:00
1:45 PM,82.4,48.2,30,29.90,10.0,West,10.4,17.3,N/A,,Scattered Clouds,260,2013-06-16 18:45:00
2:50 PM,84.2,46.4,27,29.90,10.0,West,15.0,24.2,N/A,,Scattered Clouds,270,2013-06-16 19:50:00
3:50 PM,84.2,48.2,29,29.89,10.0,West,13.8,19.6,N/A,,Scattered Clouds,280,2013-06-16 20:50:00
4:45 PM,86.0,44.6,23,29.86,10.0,West,17.3,25.3,N/A,,Scattered Clouds,270,2013-06-16 21:45:00
5:55 PM,84.2,46.4,27,29.84,10.0,West,11.5,17.3,N/A,,Mostly Cloudy,270,2013-06-16 22:55:00
6:45 PM,75.2,48.2,38,29.88,10.0,WSW,15.0,27.6,N/A,,Mostly Cloudy,240,2013-06-16 23:45:00
7:45 PM,73.4,53.6,50,29.86,10.0,West,8.1,-,N/A,,Scattered Clouds,280,2013-06-17 00:45:00
8:45 PM,73.4,53.6,50,29.85,10.0,SW,3.5,-,N/A,,Scattered Clouds,230,2013-06-17 01:45:00
9:14 PM,68.0,57.2,68,29.84,10.0,SSW,3.5,-,N/A,,Clear,210,2013-06-17 02:14:00
9:34 PM,69.8,55.4,60,29.86,10.0,SW,3.5,-,N/A,,Clear,220,2013-06-17 02:34:00
9:45 PM,66.2,57.2,73,29.86,10.0,South,3.5,-,N/A,,Clear,190,2013-06-17 02:45:00
9:54 PM,66.2,57.2,73,29.86,10.0,South,3.5,-,N/A,,Clear,190,2013-06-17 02:54:00
10:14 PM,66.2,55.4,68,29.87,10.0,SSW,5.8,-,N/A,,Clear,200,2013-06-17 03:14:00
10:34 PM,66.2,55.4,68,29.87,10.0,SSW,8.1,-,N/A,,Clear,200,2013-06-17 03:34:00
10:54 PM,68.0,57.2,68,29.87,10.0,SSW,5.8,-,N/A,,Clear,200,2013-06-17 03:54:00
11:14 PM,66.2,57.2,73,29.86,10.0,SSW,4.6,-,N/A,,Clear,210,2013-06-17 04:14:00
11:34 PM,66.2,57.2,73,29.86,10.0,SSW,6.9,-,N/A,,Clear,210,2013-06-17 04:34:00
11:54 PM,66.2,57.2,73,29.86,10.0,SSW,6.9,-,N/A,,Clear,210,2013-06-17 04:54:00